Temp
73 67 62 67 67 69 67 61 60 61 68 63 61 58 58 62 64 63 62 62 61 62 67 66 65 65 63 63 60 60 62 61 60 59 58 58 58 59 60 59 62 61 61 63
69 63 72 75 77 71 69 63 59 63 68 62 59 57 57 61 63 65 63 62 63 64 66 65 64 63 63 65 61 60 60 61 60 59 58 58 57 58 59 59 60 61 62 62
64 71 80 77 76 73 64 63 63 63 65 63 57 53 54 59 62 65 67 68 65 65 63 65 64 62 63 61 61 61 61 61 59 60 58 59 58 57 57 57 57 60 62 61
69 76 76 75 72 73 61 71 69 67 60 50 60 43 52 55 57 61 68 66 65 66 65 62 63 62 62 62 62 61 61 59 59 59 58 55 54 53 55 55 57 58 61 61
70 72 72 68 72 75 68 72 68 66 58 52 52 44 48 53 52 57 62 65 64 63 61 62 63 62 63 63 61 60 59 58 58 58 57 55 54 55 54 54 55 56 57 58
72 79 76 75 77 77 76 66 63 60 53 45 49 47 43 47 54 58 60 64 64 62 63 62 63 63 61 62 61 59 58 57 57 57 56 54 55 55 53 54 54 54 57 55
69 72 78 79 71 74 67 55 46 45 43 43 51 47 46 54 59 59 60 60 60 61 61 62 61 63 62 59 59 59 57 56 57 57 56 55 54 54 55 56 56 56 58 54
59 58 72 77 71 66 61 57 47 39 40 44 52 42 46 57 61 65 63 64 61 60 61 65 62 58 57 59 58 58 56 55 57 55 55 55 56 54 54 54 54 56 56 54
58 60 77 78 77 73 64 57 60 50 46 42 42 47 56 58 61 61 60 59 59 60 60 58 60 61 58 58 56 57 56 55 55 56 55 54 54 54 53 54 54 55 56 56
66 57 73 76 77 74 66 67 53 48 39 38 42 43 42 51 55 58 58 58 59 60 58 59 61 58 58 56 57 56 56 56 56 56 54 55 54 54 54 53 53 54 56 55
66 57 61 68 62 62 62 57 55 52 46 39 36 40 52 53 56 55 56 58 61 61 57 57 57 58 58 57 56 55 55 54 54 54 54 54 54 54 53 52 52 53 55 55
66 56 51 59 69 72 65 57 53 45 45 44 41 40 54 55 56 59 60 63 62 59 57 57 58 58 57 55 55 55 54 54 54 54 54 53 53 52 52 52 53 54 54 54
64 56 49 54 59 65 60 62 58 52 47 44 40 39 57 57 56 56 57 59 59 59 57 57 58 56 56 55 56 55 55 54 55 56 56 54 51 50 51 52 54 53 54 55
65 56 54 48 54 58 58 63 61 52 42 44 45 45 50 53 54 59 57 58 56 57 59 56 53 53 54 55 55 55 55 55 54 55 54 51 50 51 51 52 54 54 54 54
62 52 56 59 63 64 64 63 61 54 53 48 49 49 52 53 55 56 57 56 57 57 56 53 53 53 52 53 54 55 54 53 52 52 52 51 51 52 52 52 52 54 54 55
60 52 54 55 64 65 62 61 63 60 59 54 53 49 56 56 58 56 58 58 56 55 56 56 56 55 54 54 53 54 53 52 51 51 50 51 52 52 52 51 51 53 55 54
59 54 52 49 59 59 51 56 59 58 61 57 50 53 56 54 57 55 55 56 56 56 57 56 55 53 52 52 52 50 50 51 50 50 51 52 53 51 50 51 51 50 52 53
56 55 51 48 52 40 52 59 62 58 60 61 59 58 57 55 53 55 55 54 55 55 56 55 52 51 50 50 50 50 50 49 49 48 49 51 50 50 50 50 50 52 52 52
59 54 49 44 43 51 56 58 56 54 52 59 56 58 58 56 54 52 56 55 54 52 54 52 52 50 49 50 49 49 48 48 48 49 48 50 49 49 50 48 48 49 49 51
59 53 48 45 42 40 52 61 63 61 44 56 57 54 53 52 42 45 52 55 54 54 54 52 51 51 50 49 48 47 46 46 46 48 49 49 49 48 47 47 48 49 49 52
49 48 45 40 41 48 59 64 66 44 44 55 57 53 51 48 47 51 53 53 53 53 52 52 50 49 49 49 47 45 44 45 47 49 49 49 53 50 47 46 48 49 49 52
49 45 42 43 40 41 62 61 51 52 53 55 54 53 51 51 52 53 53 52 53 53 52 53 50 49 49 48 46 45 44 47 48 48 48 47 47 49 50 44 45 50 50 50
50 51 46 47 47 53 57 56 56 56 55 54 55 54 54 52 52 52 50 51 53 53 52 52 50 49 48 48 46 45 47 47 48 46 46 45 46 47 48 45 44 45 47 49
54 56 51 52 53 55 58 58 58 58 58 58 56 55 54 52 52 50 50 50 51 52 52 52 50 50 48 47 49 48 48 48 47 45 45 45 44 44 45 52 47 44 48 48
54 55 53 51 54 56 57 58 60 59 58 58 57 56 54 53 51 50 50 50 52 53 52 51 49 49 48 49 50 49 51 51 45 44 44 43 47 42 43 49 47 47 45 47
54 52 48 47 54 53 53 57 61 58 57 57 57 55 55 54 53 52 50 51 52 52 52 50 50 49 49 50 49 51 52 49 48 44 43 42 48 43 48 45 47 45 44 43
MSLP
1008.91 1009.75 1010.38 1010.29 1010.76 1011.26 1011.99 1012.78 1012.79 1012.25 1012.29 1013.22 1014.53 1016.24 1017.40 1017.49 1018.10 1018.75 1019.12 1019.33 1019.68 1019.41 1018.55 1019.25 1019.76 1020.11 1020.29 1020.60 1020.86 1020.97 1021.09 1021.07 1021.24 1021.41 1021.06 1020.76 1020.44 1020.34 1020.20 1019.71 1019.61 1019.51 1019.37 1019.25
1009.49 1009.45 1009.30 1009.15 1009.32 1010.62 1011.14 1011.89 1012.17 1011.88 1011.54 1013.81 1015.04 1016.58 1017.77 1017.79 1017.75 1018.06 1018.61 1018.88 1019.04 1018.98 1018.77 1018.98 1019.39 1019.77 1019.89 1020.04 1020.25 1020.76 1020.76 1020.70 1020.79 1021.02 1020.65 1020.33 1020.24 1020.15 1019.82 1019.70 1019.48 1019.36 1019.16 1018.92
1009.45 1008.74 1008.38 1008.12 1008.76 1009.84 1010.66 1011.30 1011.29 1011.58 1012.24 1013.75 1015.47 1017.26 1017.88 1017.91 1017.79 1017.63 1017.45 1017.50 1018.21 1018.32 1018.32 1018.55 1019.18 1019.39 1019.37 1019.86 1020.17 1020.39 1020.25 1020.12 1020.31 1020.41 1020.46 1020.25 1020.07 1020.03 1019.86 1019.66 1019.45 1019.09 1018.95 1018.84
1008.65 1007.81 1007.94 1007.89 1008.33 1009.00 1009.26 1009.74 1010.14 1010.77 1011.87 1013.57 1014.50 1017.04 1018.17 1018.15 1017.91 1017.52 1016.55 1016.67 1017.36 1017.87 1017.97 1018.33 1018.78 1019.01 1019.17 1019.52 1019.72 1019.87 1019.74 1019.90 1019.93 1020.17 1020.28 1020.30 1020.18 1020.16 1019.81 1019.71 1019.45 1018.83 1018.48 1018.42
1007.80 1007.60 1007.42 1007.97 1007.92 1008.00 1008.67 1009.31 1009.73 1010.42 1011.64 1013.19 1015.03 1016.80 1017.68 1018.08 1018.06 1017.29 1016.64 1016.85 1017.46 1017.83 1017.89 1018.36 1018.54 1019.05 1019.12 1019.28 1019.38 1019.62 1019.83 1020.10 1020.10 1020.22 1020.27 1020.29 1020.14 1020.07 1019.74 1019.51 1019.36 1018.85 1018.40 1018.40
1007.52 1006.96 1006.96 1006.95 1007.11 1007.51 1008.06 1009.33 1009.90 1011.01 1012.48 1014.48 1015.25 1016.48 1017.70 1017.80 1017.17 1017.13 1016.95 1016.98 1017.34 1017.71 1017.94 1018.28 1018.57 1018.84 1019.09 1019.32 1019.49 1019.83 1020.01 1020.02 1019.99 1020.04 1019.94 1020.07 1020.06 1019.82 1019.67 1019.26 1019.03 1018.53 1018.26 1018.16
1007.56 1007.13 1006.53 1006.57 1007.06 1007.23 1008.30 1010.39 1011.59 1012.76 1014.19 1015.22 1015.68 1016.74 1016.97 1017.01 1016.81 1016.91 1017.05 1017.34 1017.67 1017.81 1018.10 1018.50 1018.65 1018.82 1019.10 1019.35 1019.59 1019.78 1019.91 1019.95 1019.75 1019.71 1019.63 1019.64 1019.61 1019.40 1019.17 1018.65 1018.36 1018.03 1017.61 1017.89
1008.29 1007.62 1006.97 1006.91 1007.15 1007.86 1008.76 1010.48 1012.17 1013.62 1015.21 1015.60 1016.18 1017.13 1017.14 1016.85 1016.80 1016.75 1016.93 1017.51 1017.62 1017.89 1018.05 1018.29 1018.54 1018.99 1019.41 1019.39 1019.43 1019.61 1019.94 1019.91 1019.48 1019.47 1019.49 1019.42 1019.10 1018.95 1018.59 1018.25 1017.95 1017.62 1017.53 1017.43
1008.74 1008.21 1007.41 1006.94 1006.92 1007.60 1008.85 1010.11 1011.12 1012.97 1014.56 1016.02 1017.02 1017.59 1017.35 1017.16 1016.96 1016.96 1017.23 1017.66 1017.66 1017.92 1018.31 1018.55 1018.57 1018.78 1019.18 1019.21 1019.58 1019.61 1019.62 1019.58 1019.35 1019.23 1019.15 1019.11 1018.95 1018.75 1018.40 1017.77 1017.54 1017.49 1017.10 1016.98
1009.41 1009.32 1008.55 1007.54 1007.31 1007.73 1008.53 1009.60 1011.36 1013.32 1015.12 1016.37 1017.25 1017.57 1017.24 1017.20 1016.91 1017.40 1017.71 1017.83 1017.94 1018.03 1018.30 1018.59 1018.68 1018.98 1019.08 1019.09 1019.14 1019.22 1019.18 1019.12 1018.97 1018.79 1018.81 1018.76 1018.62 1018.39 1018.02 1017.71 1017.10 1016.83 1016.54 1016.38
1009.81 1010.62 1009.98 1008.92 1008.63 1008.67 1009.03 1010.09 1011.75 1013.42 1015.01 1016.23 1017.19 1017.35 1016.26 1016.44 1016.69 1017.25 1017.44 1017.65 1017.80 1017.92 1018.23 1018.61 1018.63 1018.62 1018.54 1018.60 1018.81 1018.97 1019.08 1019.13 1019.05 1018.73 1018.59 1018.50 1018.20 1017.82 1017.60 1017.34 1016.97 1016.56 1016.04 1015.73
1010.41 1011.17 1011.20 1010.44 1009.32 1008.99 1009.33 1010.39 1011.71 1013.81 1014.98 1015.90 1016.59 1016.94 1016.41 1016.58 1016.89 1017.10 1017.23 1017.19 1017.22 1017.47 1017.87 1018.18 1018.20 1018.40 1018.50 1018.93 1019.05 1018.94 1018.94 1018.93 1018.83 1018.66 1018.48 1018.31 1018.01 1017.80 1017.39 1017.01 1016.45 1015.95 1015.46 1015.15
1010.82 1011.77 1012.08 1011.14 1010.58 1009.75 1009.80 1010.42 1011.42 1012.85 1014.23 1015.63 1016.66 1017.01 1016.69 1016.72 1016.91 1016.88 1016.83 1017.00 1017.28 1017.27 1017.91 1018.15 1018.08 1018.44 1018.61 1018.85 1018.89 1018.96 1019.02 1018.90 1018.67 1018.37 1018.27 1018.16 1017.96 1017.71 1017.19 1016.75 1016.17 1015.55 1015.09 1014.60
1011.42 1012.30 1012.65 1012.49 1011.71 1011.02 1010.58 1010.62 1011.32 1012.61 1014.18 1015.22 1015.69 1016.44 1016.76 1016.74 1016.67 1016.58 1016.75 1016.70 1017.06 1017.52 1017.89 1018.24 1018.67 1018.73 1018.85 1019.15 1019.18 1019.21 1019.21 1019.07 1018.87 1018.70 1018.13 1017.98 1017.69 1017.26 1016.74 1016.26 1015.72 1015.21 1014.79 1014.70
1012.03 1012.77 1012.77 1012.38 1011.72 1011.16 1010.85 1010.87 1011.43 1012.28 1012.94 1013.98 1014.62 1015.40 1015.82 1016.09 1016.11 1016.16 1016.48 1016.89 1017.43 1017.75 1018.29 1018.48 1018.76 1018.95 1019.32 1019.47 1019.40 1019.36 1019.29 1019.03 1018.81 1018.62 1018.17 1017.87 1017.40 1016.93 1016.43 1015.92 1015.43 1014.91 1014.49 1014.35
1012.62 1012.99 1013.02 1012.67 1011.83 1011.40 1011.01 1011.43 1011.30 1012.43 1012.99 1013.83 1014.59 1015.23 1015.21 1015.73 1015.81 1016.33 1016.82 1017.21 1017.65 1018.21 1018.50 1018.68 1018.82 1019.17 1019.52 1019.57 1019.54 1019.43 1019.30 1019.13 1018.75 1018.59 1018.36 1017.81 1017.29 1016.84 1016.33 1015.73 1015.33 1014.91 1014.46 1014.15
1013.10 1013.61 1013.75 1013.62 1012.84 1012.49 1012.69 1013.14 1012.62 1013.20 1013.67 1014.53 1015.02 1015.11 1015.47 1016.12 1016.33 1016.66 1017.14 1017.57 1018.12 1018.42 1018.72 1018.87 1019.17 1019.49 1019.70 1019.79 1019.71 1019.60 1019.41 1019.02 1018.80 1018.68 1018.32 1017.79 1017.29 1016.86 1016.27 1015.63 1015.21 1014.81 1014.42 1014.04
1013.25 1013.82 1014.53 1014.80 1014.19 1014.15 1014.70 1014.38 1013.79 1014.09 1014.37 1014.55 1014.63 1015.36 1016.04 1016.54 1017.05 1017.17 1017.63 1018.12 1018.62 1018.83 1019.05 1019.20 1019.47 1019.82 1019.95 1019.84 1019.71 1019.60 1019.46 1019.20 1018.91 1018.62 1018.17 1017.66 1017.26 1016.80 1016.18 1015.70 1015.21 1014.54 1014.03 1013.69
1012.91 1014.04 1015.50 1016.07 1015.91 1015.40 1014.73 1014.55 1014.66 1014.75 1015.27 1015.24 1015.50 1016.21 1016.81 1017.13 1017.50 1018.58 1018.54 1018.62 1018.89 1019.18 1019.25 1019.43 1019.70 1020.00 1020.05 1019.95 1019.99 1019.92 1019.73 1019.38 1018.91 1018.53 1018.07 1017.67 1017.20 1016.72 1016.29 1015.78 1015.23 1014.51 1014.06 1013.57
1013.79 1014.54 1016.04 1017.15 1016.96 1016.22 1014.99 1014.53 1014.42 1015.24 1015.83 1016.10 1016.21 1016.76 1017.19 1017.67 1018.63 1019.39 1019.29 1019.09 1019.23 1019.23 1019.34 1019.64 1019.90 1020.08 1020.06 1020.15 1020.13 1020.12 1019.92 1019.34 1018.92 1018.55 1018.13 1017.64 1017.11 1016.76 1016.33 1015.86 1015.20 1014.44 1013.93 1013.44
1014.93 1015.98 1016.91 1017.52 1017.35 1016.44 1014.74 1014.39 1014.51 1015.73 1016.55 1016.25 1016.55 1017.13 1017.59 1018.24 1018.77 1019.17 1019.33 1019.33 1019.33 1019.34 1019.59 1019.84 1019.98 1020.24 1020.20 1020.11 1020.09 1020.19 1019.82 1019.34 1018.87 1018.42 1018.00 1017.56 1016.99 1016.61 1016.13 1015.78 1015.15 1014.54 1014.08 1013.46
1015.23 1016.32 1017.31 1017.80 1017.44 1016.27 1015.01 1014.90 1015.35 1016.24 1016.26 1016.57 1016.96 1017.44 1018.04 1018.53 1018.94 1019.21 1019.45 1019.56 1019.54 1019.62 1019.93 1019.79 1020.16 1020.26 1020.22 1020.06 1019.95 1019.87 1019.58 1018.99 1018.67 1018.35 1018.00 1017.64 1017.17 1016.67 1016.14 1015.75 1015.24 1014.58 1014.15 1013.69
1015.35 1015.89 1016.42 1017.24 1016.76 1015.96 1015.42 1015.42 1015.56 1015.92 1016.43 1016.86 1017.09 1017.65 1018.00 1018.71 1019.06 1019.29 1019.57 1019.63 1019.54 1019.55 1019.75 1019.75 1020.02 1020.04 1019.87 1019.64 1019.65 1019.59 1018.95 1018.64 1018.50 1018.36 1018.00 1017.67 1017.21 1016.70 1016.13 1015.74 1015.28 1014.81 1014.38 1013.93
1015.50 1015.52 1016.25 1016.73 1016.57 1015.99 1015.59 1015.44 1015.54 1015.93 1016.38 1016.87 1017.32 1017.86 1018.27 1018.87 1019.15 1019.39 1019.60 1019.66 1019.50 1019.49 1019.53 1019.65 1019.73 1019.67 1019.55 1019.25 1019.27 1019.00 1018.67 1018.47 1018.39 1018.21 1017.92 1017.64 1017.28 1016.84 1016.28 1015.52 1015.21 1014.87 1014.51 1014.21
1015.98 1015.78 1016.24 1016.69 1016.36 1016.20 1015.93 1015.78 1015.91 1016.43 1016.89 1017.39 1017.87 1018.11 1018.53 1018.82 1019.13 1019.36 1019.64 1019.58 1019.36 1019.25 1019.37 1019.42 1019.41 1019.25 1019.11 1019.15 1018.92 1018.51 1018.13 1017.96 1018.06 1018.02 1017.85 1017.56 1017.21 1016.82 1016.39 1015.79 1015.29 1014.95 1014.71 1014.56
1016.35 1016.40 1016.69 1016.88 1016.46 1016.32 1016.42 1016.18 1016.52 1017.09 1017.60 1017.93 1018.14 1018.39 1018.42 1018.52 1018.77 1018.92 1019.22 1019.12 1018.98 1018.87 1018.91 1019.05 1018.93 1018.74 1018.78 1018.61 1018.33 1017.77 1017.51 1017.75 1017.79 1017.78 1017.74 1017.54 1017.20 1016.80 1016.35 1015.92 1015.42 1014.96 1014.83 1014.66
Wind_Speed
3 1 7 13 11 7 7 5 7 7 8 3 8 9 14 17 14 10 9 11 10 11 14 8 8 8 7 8 8 7 6 5 5 3 3 4 3 3 3 1 5 6 6 6
7 7 12 10 12 6 9 3 6 10 3 5 8 9 3 8 4 3 7 11 12 12 9 8 9 7 9 11 8 6 7 8 6 3 4 4 2 3 4 4 5 6 6 6
5 11 12 8 10 9 3 7 4 8 10 10 14 6 1 2 6 6 7 12 8 14 9 7 8 10 9 7 5 8 11 10 7 8 3 3 1 3 3 3 3 5 6 6
7 7 5 7 5 4 3 3 2 6 4 4 9 4 2 3 5 6 8 9 7 6 5 4 7 8 6 5 7 8 8 7 5 6 5 5 3 4 2 2 4 4 4 5
13 5 5 4 6 5 7 6 2 4 3 4 3 6 3 3 6 8 3 4 6 6 8 7 7 3 5 3 2 3 3 5 6 5 5 3 4 3 3 3 5 4 5 5
9 4 6 8 5 2 5 1 7 6 4 4 4 6 5 6 7 4 3 8 8 5 6 4 3 3 2 2 3 2 3 6 6 6 7 6 6 8 5 5 5 4 3 5
6 5 4 3 2 7 8 7 5 6 6 5 3 3 5 6 8 6 8 6 6 7 8 6 7 6 6 5 4 3 6 7 7 7 5 6 8 8 9 10 8 5 3 4
4 7 4 2 5 6 1 7 6 4 3 4 4 2 5 5 7 4 4 8 8 8 8 7 7 6 5 7 8 7 6 6 7 6 7 7 8 5 5 6 5 5 5 6
4 4 4 4 3 6 4 2 6 5 0 3 3 1 3 4 7 3 9 6 7 7 5 5 7 7 6 5 4 8 7 3 3 6 6 6 6 7 7 8 5 7 5 5
6 7 6 5 3 3 4 2 2 4 2 4 2 2 4 7 9 10 8 6 4 4 7 5 4 5 3 6 7 6 5 6 6 6 4 5 5 6 7 6 7 7 8 7
4 3 7 4 3 3 5 3 5 4 4 4 1 5 6 9 7 11 8 7 6 8 7 7 6 7 8 7 6 5 6 6 4 3 3 5 6 6 6 6 6 7 9 9
3 4 3 4 5 2 2 3 5 6 5 1 4 6 5 8 8 8 7 6 3 7 8 6 6 7 6 4 5 6 5 4 1 2 3 5 6 7 7 6 7 9 10 6
3 3 4 9 7 6 2 1 3 4 3 3 4 6 2 5 7 7 8 6 4 5 6 3 2 2 3 5 2 3 1 2 2 2 3 5 5 6 7 7 9 8 9 7
4 2 6 6 7 3 5 4 3 5 4 3 5 6 7 9 10 9 8 6 5 5 6 2 5 6 6 5 5 4 4 3 5 6 5 5 6 5 6 7 7 7 5 4
5 2 2 6 6 5 6 2 2 3 6 6 6 10 13 10 9 8 7 5 7 6 6 7 6 6 4 3 3 3 4 5 4 6 7 7 6 6 6 7 7 7 5 4
1 3 2 5 7 8 1 8 3 6 11 8 6 1 5 3 6 6 7 7 6 8 6 6 6 6 5 5 5 5 5 5 5 6 7 7 6 6 7 7 7 6 4 4
3 2 2 4 6 7 4 7 7 4 8 4 5 8 6 4 6 7 6 6 9 7 6 5 6 6 5 5 3 4 3 4 6 6 6 6 7 7 7 7 7 6 4 4
3 2 2 3 5 4 1 3 7 6 5 6 6 5 4 5 5 7 6 8 7 6 5 5 5 5 3 1 3 4 5 6 5 6 6 7 6 7 7 7 7 7 4 4
4 5 4 3 1 1 1 3 2 1 2 5 7 5 5 5 9 8 4 5 6 6 3 4 5 4 2 5 4 4 6 6 6 6 6 8 7 8 7 7 7 7 5 5
8 8 6 2 2 2 3 4 5 3 2 2 6 3 2 3 3 2 1 5 6 5 4 6 6 3 6 4 4 4 4 5 6 7 7 7 6 7 7 6 8 6 5 4
3 4 4 2 1 5 8 7 2 1 8 2 5 4 4 5 4 5 5 4 4 3 7 6 6 5 4 2 4 3 5 6 6 6 6 7 9 6 6 6 5 5 4 3
4 5 2 2 2 3 4 3 0 4 0 6 5 5 9 7 6 6 6 6 5 6 8 6 5 3 2 2 2 2 4 6 5 6 6 7 7 7 6 7 6 6 5 4
4 5 5 7 6 4 3 6 3 4 5 5 6 5 8 7 5 6 5 5 4 7 5 4 5 3 3 4 3 4 5 5 5 6 6 6 7 7 7 6 6 4 5 4
7 2 3 3 2 4 5 3 3 4 5 5 6 6 6 7 5 5 5 3 3 4 5 4 4 2 5 7 6 6 5 4 4 6 6 6 6 7 7 6 4 4 3 4
3 3 2 3 4 3 2 2 6 5 11 10 7 6 7 7 4 4 4 4 3 3 5 5 5 6 6 3 6 7 5 2 2 4 5 6 4 5 5 5 4 4 1 2
2 1 3 3 5 4 3 4 7 9 7 6 7 4 4 6 6 6 6 6 4 4 4 6 7 6 5 5 7 7 5 1 1 3 4 5 3 4 4 4 5 2 3 6
Wind_Direction
308 110 234 233 200 167 170 200 199 249 232 83 179 134 174 186 189 200 200 206 217 216 229 204 219 214 207 221 233 224 219 200 224 250 263 273 256 269 269 266 210 195 207 219
8 259 256 252 253 185 180 172 252 311 219 85 127 137 125 196 214 167 197 212 218 233 228 200 205 201 220 226 223 201 205 213 222 206 225 228 166 261 244 236 231 228 222 222
190 261 296 317 83 266 66 194 240 240 93 95 125 160 195 238 266 279 267 220 213 222 224 224 190 209 224 230 204 211 215 221 215 230 247 279 8 297 310 265 252 241 241 242
241 269 309 263 116 229 145 235 68 355 47 227 193 198 217 275 300 270 228 201 211 212 163 168 188 216 213 226 217 230 221 229 226 225 229 218 219 251 250 285 279 270 264 245
259 273 327 123 177 187 206 211 137 238 336 90 68 88 250 158 245 251 137 103 130 148 148 160 192 144 187 165 218 254 261 265 266 252 257 248 259 253 255 273 294 281 266 256
239 246 169 193 217 189 148 10 27 17 70 22 240 128 235 192 197 158 105 112 137 131 135 70 78 133 160 219 209 136 193 247 259 249 244 244 274 275 268 254 253 270 272 283
313 297 316 152 317 341 68 46 345 355 4 241 136 39 245 196 165 168 153 158 116 115 117 132 151 163 178 198 200 198 216 250 250 240 256 250 257 268 261 265 263 256 266 262
198 330 12 9 182 212 281 139 156 226 233 278 18 197 274 181 188 160 140 162 151 152 171 174 159 151 165 171 183 193 199 250 242 247 265 268 256 253 258 258 260 254 254 249
38 293 310 266 196 119 296 282 184 143 328 91 176 10 356 232 241 142 147 170 160 178 157 151 134 143 161 150 137 166 184 190 167 189 208 240 262 271 272 270 252 260 256 257
22 339 320 327 37 316 177 189 6 12 270 270 207 212 231 194 221 158 158 155 150 134 123 136 141 168 178 173 182 182 165 160 175 192 197 227 245 268 275 281 273 265 263 239
103 123 286 2 353 235 348 23 58 114 128 159 225 254 230 185 167 154 154 174 162 154 167 179 175 173 164 167 166 152 143 153 181 201 212 252 255 265 278 281 285 270 267 254
106 161 293 284 299 241 215 153 115 118 285 208 154 260 347 132 145 155 171 174 171 157 183 198 178 194 201 159 166 165 175 182 143 191 238 274 265 299 281 284 279 282 283 248
28 11 335 340 350 346 29 221 136 124 85 242 137 256 200 147 153 182 159 187 180 167 185 176 225 352 186 172 183 127 35 95 206 264 306 318 290 297 295 286 278 282 283 267
78 139 176 210 237 223 294 323 150 114 105 218 196 167 208 204 195 195 189 177 185 150 153 175 51 66 63 61 61 74 46 0 319 317 340 314 312 301 302 290 302 293 281 276
122 222 240 257 256 290 257 329 146 152 196 157 203 176 204 209 207 199 193 188 140 145 78 90 81 79 102 62 42 54 37 15 350 353 352 324 306 311 314 318 313 308 308 245
177 256 356 304 309 337 181 20 4 52 12 34 76 272 186 150 130 128 179 156 139 105 106 94 83 92 67 65 58 40 14 2 11 357 332 324 324 318 314 316 317 327 339 322
148 158 54 281 324 325 22 357 57 53 30 98 210 224 165 135 147 178 178 115 115 107 108 92 79 95 93 69 54 15 345 352 13 349 332 348 339 316 314 326 324 314 300 303
179 122 105 274 1 11 352 304 63 79 22 355 71 102 151 127 74 67 96 115 112 112 106 91 112 116 105 100 31 19 18 11 355 339 332 330 325 319 323 326 318 314 288 311
163 114 67 69 354 266 296 337 10 72 38 11 84 88 85 122 73 28 82 113 132 131 127 101 127 123 87 41 26 45 14 353 349 339 333 327 319 317 328 327 317 309 282 284
59 65 104 14 93 244 250 247 202 305 248 59 100 122 117 121 76 227 198 112 101 107 107 118 121 120 73 51 47 47 345 353 348 329 318 311 313 324 315 322 311 303 300 276
61 34 113 145 191 297 255 279 144 225 237 108 105 113 112 98 180 167 144 86 114 109 103 120 91 96 116 109 65 11 347 341 309 318 320 326 329 316 332 320 304 323 322 339
149 132 160 97 210 291 356 35 214 212 123 120 116 126 101 123 128 138 142 129 118 91 131 118 118 154 168 99 90 325 320 288 317 329 329 328 328 330 330 327 323 324 332 336
51 170 179 171 220 238 314 132 162 145 135 164 133 141 137 134 129 140 138 126 105 129 141 138 141 147 195 204 217 271 267 293 311 326 326 326 324 323 325 318 333 326 330 7
345 89 85 96 303 181 139 93 78 131 140 109 105 121 104 111 120 121 135 137 121 138 161 167 171 201 248 225 244 252 286 322 332 325 325 317 329 327 328 326 333 320 330 9
235 20 44 6 11 56 330 202 158 96 94 95 87 106 120 113 109 135 159 183 193 170 180 197 203 228 261 266 250 263 267 258 317 327 323 312 303 324 318 313 332 327 16 333
349 232 102 225 272 139 307 78 92 90 99 113 119 117 150 144 159 161 192 211 215 229 190 217 239 250 254 248 255 254 249 338 324 330 327 312 309 316 309 340 335 359 345 312